QPF
0.00 0.00 0.00 0.00 0.00 0.00 0.00 0.00 0.00 0.00 0.00 0.00 0.00 0.00 0.00 0.00 0.00 0.00 0.00 0.00 0.00 0.00 0.00 0.00 0.00 0.00 0.00 0.00 0.00 0.00 0.00 0.00 0.00 0.00 0.00 0.00 0.00 0.00 0.00 0.00 0.00 0.00 0.00 0.00 0.00 0.00 0.00
0.00 0.00 0.00 0.00 0.00 0.00 0.00 0.00 0.00 0.00 0.00 0.00 0.00 0.00 0.00 0.00 0.00 0.00 0.00 0.00 0.00 0.00 0.00 0.00 0.00 0.00 0.00 0.00 0.00 0.00 0.00 0.00 0.00 0.00 0.00 0.00 0.00 0.00 0.00 0.00 0.00 0.00 0.00 0.00 0.00 0.00 0.00
0.00 0.00 0.00 0.00 0.00 0.00 0.00 0.00 0.00 0.00 0.00 0.00 0.00 0.00 0.00 0.00 0.00 0.00 0.00 0.00 0.00 0.00 0.00 0.00 0.00 0.00 0.00 0.00 0.00 0.00 0.00 0.00 0.00 0.00 0.00 0.00 0.00 0.00 0.00 0.00 0.00 0.00 0.00 0.00 0.00 0.00 0.00
0.00 0.00 0.00 0.00 0.00 0.00 0.00 0.00 0.00 0.00 0.00 0.00 0.00 0.00 0.00 0.00 0.00 0.00 0.00 0.00 0.00 0.00 0.00 0.00 0.00 0.00 0.00 0.00 0.00 0.00 0.00 0.00 0.00 0.00 0.00 0.00 0.00 0.00 0.00 0.00 0.00 0.00 0.00 0.00 0.00 0.00 0.00
0.00 0.00 0.00 0.00 0.00 0.00 0.00 0.00 0.00 0.00 0.00 0.00 0.00 0.00 0.00 0.00 0.00 0.00 0.00 0.00 0.00 0.00 0.00 0.00 0.00 0.00 0.00 0.00 0.00 0.00 0.00 0.00 0.00 0.00 0.00 0.00 0.00 0.00 0.00 0.00 0.00 0.00 0.00 0.00 0.00 0.00 0.00
0.00 0.00 0.00 0.00 0.00 0.00 0.00 0.00 0.00 0.00 0.00 0.00 0.00 0.00 0.00 0.00 0.00 0.00 0.00 0.00 0.00 0.00 0.00 0.00 0.00 0.00 0.00 0.00 0.00 0.00 0.00 0.00 0.00 0.00 0.00 0.00 0.00 0.00 0.00 0.00 0.00 0.00 0.00 0.00 0.00 0.00 0.00
0.00 0.00 0.00 0.00 0.00 0.00 0.00 0.00 0.00 0.00 0.00 0.00 0.00 0.00 0.00 0.00 0.00 0.00 0.00 0.00 0.00 0.00 0.00 0.00 0.00 0.00 0.00 0.00 0.00 0.00 0.00 0.00 0.00 0.00 0.00 0.00 0.00 0.00 0.00 0.00 0.00 0.00 0.00 0.00 0.00 0.00 0.00
0.00 0.00 0.00 0.00 0.00 0.00 0.00 0.00 0.00 0.00 0.00 0.00 0.00 0.00 0.00 0.00 0.00 0.00 0.00 0.00 0.00 0.00 0.00 0.00 0.00 0.00 0.00 0.00 0.00 0.00 0.00 0.00 0.00 0.00 0.00 0.00 0.00 0.00 0.00 0.00 0.00 0.00 0.00 0.00 0.00 0.00 0.00
0.00 0.00 0.00 0.00 0.00 0.00 0.00 0.00 0.00 0.00 0.00 0.00 0.00 0.00 0.00 0.00 0.00 0.00 0.00 0.00 0.00 0.00 0.00 0.00 0.00 0.00 0.00 0.00 0.00 0.00 0.00 0.00 0.00 0.00 0.00 0.00 0.00 0.00 0.00 0.00 0.00 0.00 0.00 0.00 0.00 0.00 0.00
0.00 0.00 0.00 0.00 0.00 0.00 0.00 0.00 0.00 0.00 0.00 0.00 0.00 0.00 0.00 0.00 0.00 0.00 0.00 0.00 0.00 0.00 0.00 0.00 0.00 0.00 0.00 0.00 0.00 0.00 0.00 0.00 0.00 0.00 0.00 0.00 0.00 0.00 0.00 0.00 0.00 0.00 0.00 0.00 0.00 0.00 0.00
0.00 0.00 0.00 0.00 0.00 0.00 0.00 0.00 0.00 0.00 0.00 0.00 0.00 0.00 0.00 0.00 0.00 0.00 0.00 0.00 0.00 0.00 0.00 0.00 0.00 0.00 0.00 0.00 0.00 0.00 0.00 0.00 0.00 0.00 0.00 0.00 0.00 0.00 0.00 0.00 0.00 0.00 0.00 0.00 0.00 0.00 0.00
0.00 0.00 0.00 0.00 0.00 0.00 0.00 0.00 0.00 0.00 0.00 0.00 0.00 0.00 0.00 0.00 0.00 0.00 0.00 0.00 0.00 0.00 0.00 0.00 0.00 0.00 0.00 0.00 0.00 0.00 0.00 0.00 0.00 0.00 0.00 0.00 0.00 0.00 0.00 0.00 0.00 0.00 0.00 0.00 0.00 0.00 0.00
0.00 0.00 0.00 0.00 0.00 0.00 0.00 0.00 0.00 0.00 0.00 0.00 0.00 0.00 0.00 0.00 0.00 0.00 0.00 0.00 0.00 0.00 0.00 0.00 0.00 0.00 0.00 0.00 0.00 0.00 0.00 0.00 0.00 0.00 0.00 0.00 0.00 0.00 0.00 0.00 0.00 0.00 0.00 0.00 0.00 0.00 0.00
0.00 0.00 0.00 0.00 0.00 0.00 0.00 0.00 0.00 0.00 0.00 0.00 0.00 0.00 0.00 0.00 0.00 0.00 0.00 0.00 0.00 0.00 0.00 0.00 0.00 0.00 0.00 0.00 0.00 0.00 0.00 0.00 0.00 0.00 0.00 0.00 0.00 0.00 0.00 0.00 0.00 0.00 0.00 0.00 0.00 0.00 0.00
0.00 0.00 0.00 0.00 0.00 0.00 0.00 0.00 0.00 0.00 0.00 0.00 0.00 0.00 0.00 0.00 0.00 0.00 0.00 0.00 0.00 0.00 0.00 0.00 0.00 0.00 0.00 0.00 0.00 0.00 0.00 0.00 0.00 0.00 0.00 0.00 0.00 0.00 0.00 0.00 0.00 0.00 0.00 0.00 0.00 0.00 0.00
0.00 0.00 0.00 0.00 0.00 0.00 0.00 0.00 0.00 0.00 0.00 0.00 0.00 0.00 0.00 0.00 0.00 0.00 0.00 0.00 0.00 0.00 0.00 0.00 0.00 0.00 0.00 0.00 0.00 0.00 0.00 0.00 0.00 0.00 0.00 0.00 0.00 0.00 0.00 0.00 0.00 0.00 0.00 0.00 0.00 0.00 0.00
0.00 0.00 0.00 0.00 0.00 0.00 0.00 0.00 0.00 0.00 0.00 0.00 0.00 0.00 0.00 0.00 0.00 0.00 0.00 0.00 0.00 0.00 0.00 0.00 0.00 0.00 0.00 0.00 0.00 0.00 0.00 0.00 0.00 0.00 0.00 0.00 0.00 0.00 0.00 0.00 0.00 0.00 0.00 0.00 0.00 0.00 0.00
0.00 0.00 0.00 0.00 0.00 0.00 0.00 0.00 0.00 0.00 0.00 0.00 0.00 0.00 0.00 0.00 0.00 0.00 0.00 0.00 0.00 0.00 0.00 0.00 0.00 0.00 0.00 0.00 0.00 0.00 0.00 0.00 0.00 0.00 0.00 0.00 0.01 0.00 0.00 0.00 0.00 0.00 0.00 0.00 0.00 0.00 0.00
0.00 0.00 0.00 0.00 0.00 0.00 0.00 0.00 0.00 0.00 0.00 0.00 0.00 0.00 0.00 0.00 0.00 0.00 0.00 0.00 0.00 0.00 0.00 0.00 0.00 0.00 0.00 0.00 0.00 0.00 0.00 0.00 0.00 0.00 0.00 0.01 0.02 0.01 0.00 0.00 0.00 0.00 0.00 0.00 0.00 0.00 0.00
0.00 0.00 0.00 0.00 0.00 0.00 0.00 0.00 0.00 0.00 0.00 0.00 0.00 0.00 0.00 0.00 0.00 0.00 0.00 0.00 0.00 0.00 0.00 0.00 0.00 0.00 0.00 0.00 0.00 0.00 0.00 0.00 0.00 0.00 0.00 0.03 0.01 0.02 0.01 0.01 0.00 0.00 0.00 0.00 0.00 0.00 0.00
0.00 0.00 0.00 0.00 0.00 0.00 0.00 0.00 0.00 0.00 0.00 0.00 0.00 0.00 0.00 0.00 0.00 0.00 0.00 0.00 0.00 0.00 0.00 0.00 0.00 0.00 0.00 0.00 0.00 0.00 0.00 0.00 0.00 0.00 0.00 0.01 0.02 0.02 0.01 0.00 0.00 0.00 0.00 0.00 0.00 0.00 0.01
0.00 0.00 0.00 0.00 0.00 0.00 0.00 0.00 0.00 0.00 0.00 0.00 0.00 0.00 0.00 0.00 0.00 0.00 0.00 0.00 0.00 0.00 0.00 0.00 0.00 0.00 0.00 0.00 0.00 0.00 0.00 0.00 0.00 0.00 0.00 0.00 0.01 0.00 0.00 0.00 0.00 0.00 0.00 0.00 0.00 0.00 0.00
0.00 0.00 0.00 0.00 0.00 0.00 0.00 0.00 0.00 0.00 0.00 0.00 0.00 0.00 0.00 0.00 0.00 0.00 0.00 0.00 0.00 0.00 0.00 0.00 0.00 0.00 0.00 0.00 0.00 0.00 0.00 0.00 0.00 0.00 0.00 0.00 0.00 0.01 0.01 0.00 0.00 0.00 0.00 0.01 0.01 0.00 0.02
0.00 0.00 0.00 0.00 0.00 0.00 0.00 0.00 0.00 0.00 0.00 0.00 0.00 0.00 0.00 0.00 0.00 0.00 0.00 0.00 0.00 0.00 0.00 0.00 0.00 0.00 0.00 0.00 0.00 0.00 0.00 0.00 0.00 0.00 0.00 0.00 0.00 0.01 0.01 0.00 0.00 0.00 0.01 0.02 0.01 0.00 0.03
0.00 0.00 0.00 0.00 0.00 0.00 0.00 0.00 0.00 0.00 0.00 0.00 0.00 0.00 0.00 0.00 0.00 0.00 0.00 0.00 0.00 0.00 0.00 0.00 0.00 0.00 0.00 0.00 0.00 0.00 0.00 0.00 0.00 0.00 0.00 0.01 0.01 0.02 0.01 0.00 0.00 0.00 0.01 0.01 0.00 0.00 0.01
0.00 0.00 0.00 0.00 0.00 0.00 0.00 0.00 0.00 0.00 0.00 0.00 0.00 0.00 0.00 0.00 0.00 0.00 0.00 0.00 0.00 0.00 0.00 0.00 0.00 0.00 0.00 0.00 0.00 0.00 0.00 0.00 0.00 0.00 0.01 0.01 0.01 0.01 0.01 0.01 0.01 0.00 0.02 0.01 0.01 0.01 0.02
0.00 0.00 0.00 0.00 0.00 0.00 0.00 0.00 0.00 0.00 0.00 0.00 0.00 0.00 0.00 0.00 0.00 0.00 0.00 0.00 0.00 0.00 0.00 0.00 0.00 0.00 0.00 0.00 0.00 0.00 0.00 0.01 0.00 0.00 0.00 0.00 0.00 0.00 0.00 0.01 0.01 0.00 0.00 0.01 0.01 0.01 0.02
0.00 0.00 0.00 0.00 0.00 0.00 0.00 0.00 0.00 0.00 0.00 0.00 0.00 0.00 0.00 0.00 0.00 0.00 0.00 0.00 0.00 0.00 0.00 0.00 0.00 0.00 0.00 0.00 0.00 0.00 0.00 0.00 0.00 0.00 0.00 0.00 0.01 0.01 0.00 0.00 0.01 0.00 0.00 0.01 0.00 0.00 0.00
0.00 0.00 0.00 0.00 0.01 0.01 0.00 0.00 0.01 0.00 0.00 0.00 0.00 0.00 0.00 0.00 0.00 0.00 0.00 0.00 0.00 0.00 0.00 0.00 0.00 0.00 0.00 0.00 0.00 0.00 0.00 0.00 0.00 0.00 0.00 0.00 0.00 0.00 0.00 0.00 0.00 0.00 0.00 0.00 0.00 0.00 0.00
MSLP
1020.11 1020.30 1020.21 1020.44 1020.63 1020.64 1020.61 1020.36 1020.48 1020.35 1020.23 1020.13 1019.82 1019.34 1019.05 1018.66 1018.22 1017.76 1017.19 1016.46 1015.69 1014.92 1014.27 1014.01 1013.59 1013.20 1012.50 1012.02 1009.79 1007.98 1007.97 1008.11 1008.17 1008.34 1008.51 1008.68 1008.82 1009.17 1009.51 1009.46 1009.46 1009.42 1008.95 1008.65 1008.26 1007.83 1007.56
1019.81 1020.01 1019.97 1019.97 1020.16 1020.39 1020.31 1020.25 1020.10 1020.19 1020.06 1020.01 1019.73 1019.26 1018.92 1018.54 1018.12 1017.79 1017.16 1016.36 1015.60 1014.81 1014.15 1013.65 1013.50 1013.49 1013.11 1011.70 1008.35 1008.27 1008.28 1007.95 1008.16 1008.39 1008.40 1008.45 1008.65 1008.90 1009.23 1009.44 1009.55 1009.20 1008.98 1008.45 1007.92 1007.37 1007.17
1019.37 1019.31 1019.69 1019.66 1019.79 1019.94 1020.04 1019.93 1019.89 1020.01 1019.88 1019.86 1019.82 1019.24 1018.96 1018.71 1018.11 1017.61 1017.05 1016.19 1015.16 1014.42 1014.01 1013.48 1013.37 1013.60 1013.03 1009.71 1008.25 1008.38 1008.31 1008.01 1007.86 1008.17 1008.29 1008.25 1008.37 1008.85 1009.23 1009.36 1009.35 1009.29 1009.26 1008.60 1007.62 1007.09 1006.81
1018.83 1018.77 1019.18 1018.98 1019.32 1019.60 1019.62 1019.69 1019.47 1019.60 1019.52 1019.59 1019.75 1019.39 1018.98 1018.58 1017.84 1017.49 1016.95 1016.06 1014.80 1014.28 1013.64 1013.39 1013.46 1013.68 1011.72 1008.66 1008.55 1008.35 1008.25 1007.95 1007.78 1007.61 1007.85 1007.87 1008.24 1008.90 1009.35 1009.35 1009.44 1009.84 1009.93 1009.48 1007.71 1007.18 1006.45
1018.29 1018.27 1018.66 1018.60 1018.75 1019.11 1019.32 1019.17 1019.11 1019.18 1019.12 1019.25 1019.58 1019.29 1019.08 1018.72 1017.76 1017.36 1016.75 1015.55 1014.43 1014.05 1013.56 1013.46 1013.62 1013.45 1010.75 1008.50 1008.47 1008.52 1008.57 1008.34 1008.09 1007.76 1007.78 1007.96 1008.48 1009.30 1009.77 1010.20 1010.68 1010.58 1010.48 1009.83 1008.89 1007.40 1007.18
1017.49 1017.78 1018.05 1018.12 1018.25 1018.56 1018.67 1018.85 1018.81 1018.78 1018.68 1018.83 1019.14 1019.13 1018.89 1018.63 1017.91 1017.18 1016.49 1015.07 1014.02 1013.97 1013.78 1013.69 1013.45 1013.48 1010.16 1009.36 1009.20 1009.04 1008.43 1008.31 1008.29 1008.14 1008.25 1008.65 1009.30 1009.88 1010.57 1011.08 1010.93 1010.86 1010.78 1010.25 1009.83 1008.52 1007.81
1017.05 1017.35 1017.54 1017.65 1017.70 1017.98 1018.11 1018.19 1018.43 1018.59 1018.56 1018.58 1018.70 1018.64 1018.51 1018.40 1017.95 1017.07 1016.66 1015.18 1015.23 1014.90 1014.82 1015.27 1013.02 1012.32 1010.47 1010.06 1009.47 1008.46 1008.19 1008.41 1008.43 1008.65 1009.11 1009.34 1010.06 1009.78 1010.00 1010.39 1010.39 1010.53 1010.60 1010.40 1009.49 1008.76 1008.53
1016.44 1016.66 1016.89 1017.02 1017.22 1017.39 1017.48 1017.64 1017.77 1018.11 1018.37 1018.44 1018.50 1018.36 1018.34 1018.37 1017.85 1017.28 1017.05 1017.56 1018.16 1018.29 1016.21 1013.69 1011.97 1012.05 1010.60 1010.48 1010.32 1008.26 1008.03 1008.54 1008.88 1009.17 1009.39 1010.09 1009.46 1008.66 1009.26 1009.85 1010.18 1010.32 1010.62 1010.20 1009.02 1008.40 1008.58
1015.72 1015.96 1016.19 1016.41 1016.61 1016.71 1016.93 1017.25 1017.53 1017.74 1018.05 1018.19 1018.42 1018.27 1018.03 1017.99 1017.66 1017.60 1017.86 1017.81 1017.63 1018.33 1017.54 1012.59 1011.13 1010.71 1009.92 1010.16 1009.87 1008.37 1007.75 1007.90 1008.31 1009.06 1009.43 1009.67 1008.45 1008.01 1008.90 1008.98 1009.52 1009.57 1009.82 1009.49 1009.14 1008.78 1008.52
1014.95 1015.14 1015.39 1015.74 1016.06 1016.23 1016.42 1016.69 1017.04 1017.41 1017.76 1017.94 1018.26 1018.14 1017.89 1017.89 1017.87 1017.88 1017.83 1017.48 1017.42 1017.73 1016.76 1012.68 1010.34 1009.24 1009.50 1009.27 1008.64 1007.73 1007.45 1007.56 1008.03 1008.38 1008.76 1009.00 1008.06 1007.97 1008.18 1008.40 1008.49 1008.68 1008.48 1008.52 1008.72 1009.06 1008.94
1014.27 1014.52 1014.74 1015.00 1015.39 1015.58 1015.98 1016.17 1016.48 1016.94 1017.40 1017.80 1018.07 1018.13 1017.89 1017.61 1017.98 1017.97 1017.81 1017.44 1017.28 1017.49 1015.78 1011.27 1009.68 1008.38 1008.81 1009.11 1008.42 1007.25 1006.87 1007.32 1007.60 1007.88 1008.45 1008.00 1007.56 1007.46 1007.75 1007.71 1007.81 1007.28 1007.59 1008.03 1008.39 1008.88 1009.20
1013.52 1013.80 1013.94 1014.32 1014.64 1014.92 1015.19 1015.57 1016.05 1016.56 1017.13 1017.53 1017.83 1017.93 1017.86 1017.96 1018.09 1017.91 1017.46 1017.29 1017.31 1017.54 1014.72 1011.57 1010.11 1009.71 1009.72 1009.21 1008.63 1007.72 1007.40 1007.13 1007.58 1007.98 1008.04 1007.90 1007.52 1007.43 1007.12 1007.05 1007.39 1007.04 1007.50 1007.91 1008.01 1008.58 1008.63
1012.69 1012.99 1013.23 1013.59 1014.06 1014.39 1014.65 1014.94 1015.45 1016.11 1016.90 1017.33 1017.73 1017.80 1017.90 1017.76 1017.75 1017.65 1017.46 1017.47 1018.30 1017.06 1013.59 1012.53 1011.98 1011.53 1011.20 1010.52 1009.76 1009.14 1008.51 1008.22 1008.51 1008.77 1008.59 1008.22 1007.89 1007.41 1007.22 1007.10 1007.31 1007.76 1008.23 1008.61 1008.71 1008.72 1006.80
1012.04 1012.20 1012.44 1012.87 1013.26 1013.79 1013.98 1014.41 1014.96 1015.68 1016.52 1017.31 1017.75 1018.05 1018.14 1017.87 1017.73 1017.58 1017.71 1018.96 1018.37 1015.78 1014.74 1013.74 1013.26 1012.52 1012.33 1011.77 1011.04 1010.58 1010.29 1010.14 1009.96 1010.34 1010.20 1009.72 1007.68 1007.86 1008.47 1008.45 1008.68 1008.81 1008.90 1009.25 1008.65 1008.08 1007.01
1011.20 1011.27 1011.51 1011.94 1012.52 1012.85 1013.53 1014.22 1014.87 1015.79 1016.55 1017.32 1017.80 1018.27 1018.34 1017.84 1018.07 1018.22 1018.35 1018.99 1017.00 1016.33 1015.48 1015.19 1014.38 1013.48 1013.24 1012.96 1012.58 1012.32 1011.97 1011.69 1011.95 1012.05 1012.50 1012.16 1009.61 1008.52 1009.24 1009.54 1009.85 1009.30 1009.38 1009.20 1009.05 1008.66 1008.04
1010.11 1010.40 1010.74 1011.03 1011.38 1012.20 1012.94 1013.76 1014.73 1015.65 1016.44 1016.96 1017.75 1018.37 1018.62 1018.10 1018.20 1018.74 1019.36 1018.62 1017.46 1016.62 1016.47 1016.24 1016.17 1015.90 1015.27 1014.57 1014.14 1014.02 1013.54 1013.21 1013.49 1013.86 1013.88 1014.52 1013.46 1010.71 1010.44 1010.48 1009.97 1009.94 1009.81 1009.47 1009.57 1008.89 1007.38
1009.06 1009.55 1009.95 1010.45 1010.95 1011.90 1012.58 1013.29 1014.37 1015.47 1016.29 1016.76 1017.93 1018.46 1018.47 1018.09 1018.32 1019.30 1019.28 1018.73 1017.87 1017.45 1017.00 1017.45 1017.47 1017.11 1016.69 1016.60 1016.10 1015.77 1014.82 1014.23 1014.75 1015.18 1015.07 1015.29 1015.43 1011.45 1011.70 1011.07 1010.84 1010.96 1011.18 1011.04 1010.73 1010.06 1008.56
1008.08 1008.73 1009.47 1010.17 1011.05 1012.21 1012.82 1013.52 1014.36 1015.09 1015.92 1016.91 1017.78 1018.61 1018.34 1018.40 1019.07 1019.00 1018.57 1018.37 1018.38 1017.94 1017.73 1017.89 1018.14 1018.09 1017.98 1017.79 1017.29 1016.68 1016.04 1015.55 1015.49 1015.59 1015.65 1015.52 1015.18 1014.28 1011.71 1010.82 1011.28 1011.02 1010.52 1011.13 1010.74 1009.81 1008.81
1008.16 1009.09 1010.04 1010.91 1012.08 1012.60 1013.24 1013.91 1014.78 1015.51 1016.12 1016.96 1017.90 1018.77 1018.47 1018.43 1018.64 1018.65 1018.45 1018.29 1018.29 1018.39 1018.30 1018.55 1018.23 1018.29 1018.81 1018.78 1018.38 1017.47 1016.83 1016.33 1016.63 1017.16 1017.12 1016.69 1015.97 1014.84 1012.68 1011.42 1011.06 1011.42 1011.40 1011.56 1011.39 1010.49 1009.14
1009.19 1009.64 1010.47 1011.40 1012.36 1013.00 1013.81 1014.33 1014.95 1015.61 1016.36 1016.94 1018.48 1019.15 1019.05 1018.71 1018.54 1018.48 1018.66 1018.72 1018.81 1018.82 1018.54 1018.82 1018.90 1018.83 1019.08 1019.13 1019.01 1018.45 1017.99 1017.65 1017.45 1017.65 1017.56 1017.34 1016.71 1016.25 1015.17 1014.26 1013.72 1012.55 1012.08 1011.75 1011.76 1010.51 1008.85
1009.90 1010.79 1011.48 1012.31 1012.57 1013.47 1014.29 1014.69 1015.48 1015.98 1016.34 1016.99 1018.11 1018.67 1018.58 1018.93 1018.89 1018.86 1018.97 1019.06 1018.85 1018.75 1018.56 1018.59 1018.83 1019.15 1019.52 1019.52 1019.61 1019.35 1018.91 1018.42 1018.07 1017.89 1017.64 1017.82 1016.94 1016.56 1015.60 1014.97 1014.52 1013.38 1012.19 1011.13 1010.43 1009.40 1008.88
1010.64 1011.59 1012.05 1012.48 1013.19 1013.90 1014.71 1015.15 1015.48 1016.01 1016.27 1017.14 1018.29 1018.68 1018.99 1019.19 1019.11 1019.18 1019.21 1019.15 1018.94 1018.89 1018.94 1018.97 1019.22 1019.52 1019.85 1020.08 1020.05 1019.88 1019.75 1019.42 1018.68 1017.72 1017.86 1017.35 1016.27 1016.34 1015.33 1014.47 1013.55 1012.41 1011.25 1010.05 1009.05 1007.63 1006.47
1011.32 1012.31 1012.94 1013.41 1013.59 1014.14 1014.97 1015.52 1015.73 1016.28 1016.63 1017.60 1018.30 1018.47 1018.59 1019.32 1019.58 1019.50 1019.63 1019.17 1019.08 1019.31 1019.50 1019.38 1019.72 1020.14 1020.25 1020.10 1020.27 1019.93 1019.66 1019.02 1018.51 1018.12 1017.17 1017.29 1016.63 1016.17 1014.68 1013.96 1013.31 1011.21 1008.37 1008.08 1006.61 1005.58 1004.94
1011.82 1012.97 1013.35 1013.71 1014.01 1014.23 1015.15 1015.71 1016.12 1016.61 1016.91 1017.55 1018.27 1018.56 1019.09 1019.56 1019.70 1019.53 1019.71 1019.72 1019.70 1019.87 1020.21 1020.34 1020.26 1020.18 1020.03 1020.19 1020.00 1019.41 1018.93 1018.17 1017.39 1016.62 1016.41 1016.42 1016.02 1016.02 1014.22 1014.06 1011.55 1007.69 1006.63 1006.02 1005.51 1004.51 1003.84
1012.95 1013.57 1013.73 1014.28 1014.32 1014.78 1015.63 1016.07 1016.45 1016.77 1017.33 1017.92 1018.44 1018.78 1019.37 1019.94 1019.88 1019.94 1020.09 1020.34 1020.57 1020.45 1020.72 1020.82 1020.35 1020.33 1020.44 1020.63 1020.84 1019.76 1018.59 1017.43 1016.35 1015.70 1015.59 1015.67 1015.68 1014.79 1014.18 1012.80 1009.83 1007.69 1006.86 1006.50 1005.43 1004.00 1003.54
1013.51 1013.79 1014.35 1014.71 1014.86 1015.23 1015.71 1016.36 1016.80 1017.25 1017.49 1018.37 1018.96 1018.86 1019.47 1020.31 1020.37 1019.95 1020.21 1020.57 1021.03 1021.10 1021.32 1021.38 1020.90 1020.66 1020.75 1021.42 1021.71 1021.17 1019.68 1018.34 1017.16 1016.12 1015.20 1015.22 1014.78 1014.97 1013.88 1012.54 1010.03 1008.32 1007.67 1007.27 1005.82 1004.55 1004.01
1013.52 1014.10 1014.41 1014.87 1015.27 1015.36 1016.03 1016.66 1017.04 1017.64 1018.25 1018.59 1019.44 1019.25 1019.95 1020.98 1020.49 1020.16 1020.54 1020.78 1020.92 1021.54 1022.03 1022.09 1021.66 1021.33 1021.23 1021.92 1022.22 1021.66 1020.38 1019.23 1018.11 1016.75 1015.71 1015.18 1014.44 1014.34 1013.60 1012.48 1009.89 1008.89 1008.43 1007.00 1006.35 1006.11 1004.61
1013.80 1014.04 1014.29 1014.75 1015.10 1015.52 1016.03 1016.85 1017.56 1017.93 1018.14 1018.68 1019.72 1019.53 1020.23 1021.01 1020.57 1020.43 1020.27 1020.51 1020.90 1021.45 1022.18 1022.01 1022.12 1022.00 1022.10 1022.48 1022.77 1021.88 1020.86 1019.37 1018.33 1017.01 1016.30 1015.72 1015.10 1014.62 1013.69 1012.47 1009.78 1007.98 1008.16 1008.49 1007.36 1005.46 1005.27
1013.76 1014.02 1014.50 1014.82 1015.24 1015.66 1016.23 1016.72 1017.32 1017.77 1018.18 1018.87 1019.97 1019.97 1019.96 1020.78 1020.84 1020.23 1019.74 1019.59 1019.86 1020.12 1020.98 1021.56 1021.66 1021.70 1021.60 1022.32 1022.46 1022.14 1021.07 1019.65 1018.52 1017.30 1015.86 1015.54 1015.09 1015.01 1014.28 1012.11 1009.86 1009.41 1009.42 1008.25 1007.27 1006.00 1004.86
Thickness
5663 5662 5663 5661 5659 5657 5656 5659 5657 5656 5655 5656 5658 5661 5662 5663 5664 5666 5669 5673 5679 5687 5690 5691 5694 5696 5702 5698 5710 5735 5736 5732 5731 5726 5719 5714 5708 5701 5692 5696 5697 5692 5700 5702 5704 5703 5701
5658 5657 5658 5658 5656 5653 5652 5653 5652 5651 5652 5652 5653 5656 5657 5658 5660 5660 5663 5667 5674 5682 5687 5689 5690 5690 5693 5686 5728 5729 5728 5729 5723 5718 5714 5711 5703 5701 5692 5688 5686 5693 5693 5694 5697 5696 5697
5654 5655 5653 5654 5652 5650 5649 5649 5647 5646 5647 5647 5646 5650 5650 5650 5654 5656 5659 5662 5669 5677 5681 5686 5686 5685 5687 5702 5724 5723 5723 5722 5721 5715 5707 5708 5705 5695 5690 5681 5688 5684 5675 5681 5690 5693 5691
5651 5652 5650 5652 5649 5646 5645 5644 5645 5643 5643 5642 5640 5641 5643 5645 5648 5649 5652 5655 5664 5671 5677 5679 5678 5676 5684 5715 5715 5716 5716 5714 5715 5714 5707 5705 5699 5688 5681 5684 5674 5666 5663 5654 5682 5687 5693
5647 5648 5646 5647 5646 5643 5641 5641 5641 5640 5639 5637 5634 5634 5634 5635 5641 5641 5645 5652 5660 5665 5669 5671 5669 5668 5680 5708 5703 5706 5704 5700 5701 5702 5699 5696 5686 5671 5669 5652 5641 5646 5636 5641 5650 5675 5670
5643 5643 5643 5642 5641 5639 5637 5636 5636 5635 5636 5633 5629 5627 5627 5626 5630 5634 5640 5648 5656 5657 5661 5660 5662 5659 5689 5688 5690 5692 5694 5694 5689 5686 5679 5673 5655 5649 5636 5630 5619 5629 5627 5631 5628 5649 5651
5636 5636 5636 5636 5636 5634 5633 5632 5629 5628 5629 5626 5624 5623 5622 5620 5621 5626 5631 5639 5632 5640 5645 5640 5661 5659 5677 5678 5683 5687 5686 5681 5677 5669 5651 5651 5637 5636 5634 5631 5637 5633 5625 5618 5630 5637 5633
5632 5631 5631 5631 5630 5629 5629 5627 5625 5623 5621 5619 5618 5618 5616 5612 5612 5616 5616 5610 5605 5602 5614 5649 5660 5654 5664 5665 5660 5676 5680 5661 5653 5642 5644 5634 5628 5647 5638 5628 5622 5618 5610 5609 5626 5629 5617
5631 5628 5627 5627 5627 5626 5624 5621 5618 5616 5613 5613 5611 5611 5612 5608 5606 5605 5601 5602 5603 5597 5589 5650 5662 5662 5664 5659 5651 5658 5667 5658 5649 5635 5628 5618 5636 5643 5630 5624 5615 5611 5605 5609 5611 5617 5615
5629 5628 5626 5624 5622 5621 5620 5618 5614 5610 5608 5607 5603 5604 5605 5600 5597 5595 5596 5597 5597 5596 5579 5631 5653 5658 5655 5655 5652 5660 5658 5652 5642 5630 5624 5617 5634 5631 5625 5619 5619 5604 5613 5612 5607 5597 5588
5626 5625 5623 5621 5618 5617 5615 5613 5609 5606 5602 5598 5596 5595 5597 5597 5590 5591 5591 5589 5589 5587 5577 5636 5641 5654 5647 5641 5641 5649 5653 5641 5628 5627 5620 5617 5627 5624 5615 5617 5612 5616 5613 5604 5602 5587 5582
5624 5622 5620 5617 5615 5613 5613 5608 5604 5600 5595 5592 5590 5589 5588 5586 5584 5584 5584 5583 5581 5568 5573 5615 5626 5620 5619 5626 5626 5631 5630 5632 5623 5613 5610 5609 5619 5616 5614 5616 5608 5613 5602 5594 5588 5575 5563
5622 5620 5617 5614 5611 5608 5608 5604 5601 5596 5588 5586 5582 5580 5578 5578 5577 5575 5573 5573 5555 5554 5604 5601 5596 5599 5597 5600 5604 5603 5605 5602 5593 5583 5588 5601 5604 5610 5608 5601 5600 5590 5576 5554 5554 5549 5570
5617 5617 5614 5612 5609 5604 5603 5600 5597 5591 5584 5577 5573 5568 5566 5566 5565 5564 5562 5542 5542 5577 5575 5580 5580 5582 5580 5579 5582 5579 5577 5570 5574 5568 5565 5569 5593 5599 5584 5582 5574 5571 5565 5540 5539 5550 5559
5614 5615 5612 5610 5606 5604 5599 5594 5589 5582 5575 5567 5561 5556 5555 5556 5551 5548 5543 5519 5559 5559 5559 5549 5562 5566 5564 5564 5559 5559 5555 5555 5550 5547 5541 5531 5569 5583 5570 5562 5556 5549 5540 5548 5527 5530 5518
5613 5611 5609 5608 5606 5601 5596 5589 5581 5572 5565 5560 5550 5544 5539 5542 5538 5532 5513 5521 5533 5543 5535 5534 5528 5528 5526 5539 5541 5538 5540 5540 5531 5526 5523 5499 5503 5551 5553 5546 5548 5532 5535 5523 5516 5502 5505
5610 5607 5605 5602 5600 5593 5589 5583 5573 5562 5554 5548 5537 5530 5530 5530 5523 5507 5502 5505 5517 5517 5520 5506 5502 5505 5506 5504 5508 5514 5524 5529 5511 5500 5506 5491 5465 5532 5526 5532 5520 5517 5499 5500 5494 5492 5474
5607 5604 5600 5595 5589 5578 5574 5568 5560 5552 5544 5534 5525 5518 5517 5511 5497 5497 5503 5504 5500 5501 5497 5490 5484 5481 5482 5479 5480 5493 5498 5503 5494 5488 5482 5481 5467 5469 5509 5530 5514 5501 5498 5487 5462 5464 5473
5596 5590 5584 5577 5566 5561 5554 5549 5543 5536 5530 5522 5509 5499 5499 5498 5492 5489 5491 5492 5487 5483 5478 5469 5471 5470 5458 5458 5458 5468 5476 5479 5462 5454 5450 5452 5438 5436 5468 5499 5495 5472 5469 5460 5454 5449 5440
5575 5573 5567 5559 5551 5545 5536 5532 5527 5521 5514 5509 5492 5483 5478 5480 5480 5481 5476 5472 5465 5460 5457 5452 5452 5458 5449 5445 5450 5445 5448 5452 5443 5436 5434 5423 5420 5413 5409 5419 5423 5425 5432 5438 5426 5408 5427
5555 5549 5545 5538 5534 5526 5519 5515 5508 5503 5499 5493 5481 5475 5473 5462 5462 5461 5457 5454 5456 5449 5452 5451 5444 5439 5427 5415 5413 5417 5420 5419 5424 5419 5411 5396 5382 5389 5397 5395 5391 5391 5400 5411 5409 5419 5405
5533 5526 5523 5520 5514 5509 5501 5497 5493 5488 5483 5474 5461 5459 5452 5450 5449 5444 5443 5436 5440 5437 5435 5428 5420 5411 5404 5392 5391 5385 5387 5385 5391 5404 5384 5386 5375 5372 5362 5383 5384 5380 5389 5399 5409 5422 5429
5514 5506 5500 5497 5496 5492 5483 5478 5476 5470 5466 5455 5447 5444 5442 5433 5429 5423 5418 5422 5421 5417 5409 5408 5393 5383 5380 5378 5375 5372 5368 5371 5367 5363 5372 5360 5357 5355 5350 5379 5369 5371 5402 5404 5433 5444 5444
5495 5486 5483 5479 5476 5475 5467 5462 5457 5451 5448 5442 5433 5428 5417 5410 5415 5412 5409 5403 5397 5392 5384 5379 5372 5363 5368 5360 5356 5358 5355 5359 5362 5364 5361 5348 5356 5351 5357 5360 5359 5418 5430 5433 5436 5446 5448
5472 5466 5465 5461 5461 5457 5449 5445 5440 5435 5428 5423 5417 5413 5402 5393 5400 5391 5384 5380 5371 5366 5359 5356 5353 5349 5341 5339 5317 5326 5353 5362 5368 5363 5355 5352 5350 5355 5356 5369 5397 5418 5423 5418 5427 5439 5447
5454 5452 5448 5446 5443 5438 5435 5427 5422 5416 5413 5403 5397 5397 5388 5370 5370 5374 5367 5358 5341 5337 5335 5339 5339 5333 5330 5301 5301 5294 5316 5344 5346 5349 5362 5360 5354 5349 5356 5370 5391 5409 5404 5404 5426 5428 5437
5445 5438 5435 5431 5427 5425 5418 5411 5406 5397 5388 5386 5379 5376 5365 5341 5354 5351 5339 5335 5331 5321 5309 5317 5321 5320 5313 5296 5292 5299 5309 5312 5305 5333 5343 5348 5350 5328 5356 5363 5392 5391 5391 5401 5422 5425 5423
5430 5427 5424 5420 5415 5409 5403 5392 5384 5377 5373 5368 5357 5354 5344 5330 5332 5332 5330 5323 5316 5309 5294 5304 5297 5300 5284 5266 5268 5263 5276 5307 5311 5330 5331 5335 5336 5332 5345 5334 5374 5404 5392 5390 5399 5399 5410
5418 5415 5410 5405 5398 5391 5383 5375 5368 5361 5353 5344 5333 5330 5327 5320 5317 5320 5321 5320 5316 5311 5299 5293 5292 5284 5276 5256 5239 5252 5271 5286 5296 5292 5340 5327 5322 5308 5340 5354 5385 5383 5372 5382 5392 5405 5416